NOAA 16 DEB

Satellite information

Favourite Embed

Satellite Type and Status

DEBRISIN ORBIT

Key statistics

Satellite NOAA 16 DEB at a glance.

Uptime

9214

Days in orbit

Revolutions

≈ 14.1

Per day

Orbit

SSO

Sun Synchronous Orbit

Inclination

98.7

Latest

Satellite identification and parameters

Extended collection of information and parameters for NOAA 16 DEB.

Object identification

Identified? True

Debris? True

Object name: NOAA 16 DEB

International designator: 2000-055QX

Object number (NORAD): 42355

Object ID (CCSDS): 42355

Country: UNITED STATES OF AMERICA (US)

Current information (Y/N): Y

RCS size: SMALL

Orbital parameters

Period: 101.78 minutes

Inclination: 98.7002 deg

SMA: 7221.079 km

Apoapsis: 868.516 km

Periapsis: 817.372 km

RAAN: 9.6667 deg

Eccentricy: 0.0035413

Argument of periapsis: 61.4199 deg

Mean anomaly: 299.0531 deg

Mean motion: 14.14814749 rev/day

Mean motion (dot): 0.00004073 rev/day2

B* drag term: 0.0021199 1/REarth

Two-line elements (TLE)

Creation date: Dec. 10, 2025, 3:06 p.m.

Reference frame: TEME

Reference center: EARTH

Epoch: Dec. 10, 2025, 6:56 a.m. UTC

TLE line 0: 0 NOAA 16 DEB

TLE line 1: 1 42355U 00055QX 25344.28910382 .00004073 00000-0 21199-2 0 9998

TLE line 2: 2 42355 98.7002 9.6667 0035413 61.4199 299.0531 14.14814749503883

Live tracking on map

Real-time ground track for satellite NOAA 16 DEB.

In-orbit conjunctions

A list of the most updated potential collisions computed for object NOAA 16 DEB.

Target Orbit TCA Probability of collision Miss distance Type
INTERCOSMOS 22 LEO 2025-03-15 02:09:00 0.0003166204 375.0 (m) PAYLOAD
FENGYUN 1C DEB SSO 2025-01-31 19:20:01 0.0001450152 128.0 (m) DEBRIS
FENGYUN 1C DEB SSO 2024-11-16 12:59:09 0.001031287 167.0 (m) DEBRIS

Associated space launch

The NOAA K, L and M POES satellites begin the fifth generation of improved environmental monitoring in support of NOAA missions. The instrument payload has significant improvements and additions/deletions. The instrument changes have effected the spacecraft subsystems and data formats.

NOAA 16 DEB was lifted into orbit during the mission ‘Titan II SLV | NOAA 16’, on board a Titan II SLV space rocket.

The launch took place on Sept. 21, 2000, 10:22 a.m. from Space Launch Complex 4W.

For more information about the launch, click the button.

Launch to space Titan II SLV | NOAA 16
Titan II SLV | NOAA 16

Agency: N/A

Status: Launch Successful

Launch date: Sept. 21, 2000, 10:22 a.m. UTC

Rocket: Titan II SLV

Launch pad: Space Launch Complex 4W

Location: Vandenberg SFB, CA, USA

...

Latest news about this satellite

There are no fresh news available about this satellite. Check back as we update our databases every day.


Newsletter sign-up

Weekly statistics, charts and insights to help you stay on top of the space industry.